User: anonymous   Login
Location: Ahausen
(50.4985°N, 8.2722°E)
Time: 09:50:34
(UTC+00:00)
Language:

Oscar 19 - Orbit

View from above orbital plane
View from above orbital plane
View from above satellite
View from above satellite

Ground track
Ground track

The orbit data is extracted from the following two-line orbital elements,

1 20442U 90005G   22179.90062512  .00000027  00000-0  26660-4 0  9995
2 20442  98.7943 144.9370 0012559 131.4438 228.7826 14.33066773694743
Epoch (UTC): 28 June 2022 21:36:54
Eccentricity: 0.0012559
inclination: 98.7943°
perigee height: 772 km
apogee height: 790 km
right ascension of ascending node: 144.9370°
argument of perigee: 131.4438°
revolutions per day: 14.33066773
mean anomaly at epoch: 228.7826°
orbit number at epoch: 69474

The dashed part of the orbit path shows where the satellite is in the earth's shadow,  

DLR